Location: Caltech
(34.1382°N, 118.1253°W)
Time: 21:12:07
(UTC-07:00)

Iridium 59 - Visible Passes

Search period start: 04 May 2015 00:00
Search period end: 14 May 2015 00:00
Orbit: 776 x 779 km, 86.4° (Epoch: 04 May)

Date Brightness Start Highest point End Pass type
(mag) Time Alt. Az. Time Alt. Az. Time Alt. Az.
04 May 6.1 02:42:16 43° NE 02:42:16 43° NE 02:45:57 10° N visible
04 May 7.0 04:22:44 12° WNW 04:22:44 12° WNW 04:24:10 10° NW visible
05 May 6.9 02:08:55 26° NE 02:08:55 26° NE 02:11:57 10° NNE visible
05 May 6.5 03:49:23 22° WNW 03:49:23 22° WNW 03:52:21 10° NNW visible
06 May 7.5 01:35:33 14° ENE 01:35:33 14° ENE 01:37:12 10° NE visible
06 May 6.0 03:16:02 36° NW 03:16:02 36° NW 03:19:28 10° N visible
07 May 6.0 02:42:39 43° N 02:42:39 43° N 02:46:08 10° N visible
08 May 6.6 02:09:17 32° NE 02:09:17 32° NE 02:12:24 10° NNE visible
08 May 7.0 03:49:45 15° WNW 03:49:45 15° WNW 03:51:39 10° NW visible
09 May 7.2 01:35:54 19° NE 01:35:54 19° NE 01:38:10 10° NNE visible
09 May 6.5 03:16:22 26° NW 03:16:22 26° NW 03:19:15 10° NNW visible
10 May 7.8 01:02:30 10° ENE 01:02:30 10° ENE 01:02:42 10° ENE visible
10 May 6.2 02:42:58 37° NNW 02:42:58 37° NNW 02:46:10 10° N visible
11 May 6.4 02:09:34 36° NNE 02:09:34 36° NNE 02:12:40 10° N visible
12 May 6.9 01:36:09 25° NE 01:36:09 25° NE 01:38:46 10° NNE visible
12 May 6.9 03:16:37 18° NW 03:16:37 18° NW 03:18:48 10° NNW visible
13 May 7.5 01:02:44 15° NE 01:02:44 15° NE 01:04:14 10° NE visible
13 May 6.5 02:43:12 29° NW 02:43:12 29° NW 02:46:03 10° NNW visible
